Location: Unspecified
(0.0000°N, 0.0000°E)
Time: 14:28:15
(UTC+00:00)

STARLINK-1316 - Pass Details

Date: 15 February 2026
Orbit: 474 x 477 km, 53.2° (Epoch: 6 March)

Event Time Altitude Azimuth Distance (km) Brightness Sun altitude
Rises 04:49:53 0° 183° (S) 2,517 7.1 -20.5°
Reaches altitude 10° 04:53:00 10° 155° (SSE) 1,636 6.5 -19.8°
Maximum altitude 04:54:49 13° 125° (SE) 1,445 6.7 -19.3°
Drops below altitude 10° 04:56:38 10° 95° (E) 1,632 7.3 -18.9°
Sets 04:59:43 0° 67° (ENE) 2,505 7.9 -18.1°
